AFR137 WIMM-WITB

Flight info

Callsign AFR137
Flight time N/A
Altitude 35000
Route ANSAX
Aircraft B736/M-VGDW/C

Departure

Time 2026-04-24 16:18
Airport Kualanamu International Airport (WIMM)

Arrival

Time N/A
Airport WITB
Time Latitude Longitude Altitude Speed Heading
2026-04-24 16:09 3.63811 98.87908 32 ft 0 kts 225°
2026-04-24 16:10 3.63812 98.87910 32 ft 1 kts 227°
2026-04-24 16:11 3.63818 98.87919 32 ft 1 kts 256°
2026-04-24 16:11 3.63819 98.87924 32 ft 1 kts 270°
2026-04-24 16:11 3.63819 98.87928 32 ft 1 kts 279°
2026-04-24 16:12 3.63816 98.87938 30 ft 1 kts 308°
2026-04-24 16:12 3.63812 98.87942 31 ft 1 kts 322°
2026-04-24 16:12 3.63803 98.87947 29 ft 1 kts 350°
2026-04-24 16:13 3.63799 98.87948 29 ft 0 kts 358°
2026-04-24 16:14 3.63802 98.87948 29 ft 3 kts 358°
2026-04-24 16:15 3.63835 98.87946 32 ft 10 kts 358°
2026-04-24 16:15 3.63997 98.88039 32 ft 14 kts 44°
2026-04-24 16:16 3.64155 98.88193 32 ft 19 kts 36°
2026-04-24 16:16 3.64266 98.88143 32 ft 20 kts 314°
2026-04-24 16:17 3.64606 98.88253 32 ft 28 kts 45°
2026-04-24 16:17 3.64865 98.88348 31 ft 22 kts 315°
2026-04-24 16:18 3.64861 98.88129 31 ft 21 kts 225°
2026-04-24 16:18 3.63790 98.87089 205 ft 190 kts 225°
2026-04-24 16:18 3.63265 98.85863 1397 ft 197 kts 271°
2026-04-24 16:19 3.63799 98.83069 3667 ft 233 kts 281°
2026-04-24 16:19 3.64146 98.81472 4801 ft 235 kts 285°
2026-04-24 16:20 3.65756 98.78405 5985 ft 259 kts 304°
2026-04-24 16:20 3.67820 98.75383 7137 ft 266 kts 306°
2026-04-24 16:20 3.68890 98.73859 7754 ft 269 kts 306°
2026-04-24 16:21 3.71071 98.70786 9074 ft 274 kts 306°
2026-04-24 16:21 3.72198 98.69207 9779 ft 277 kts 306°
2026-04-24 16:21 3.73305 98.67661 10403 ft 281 kts 306°
2026-04-24 16:22 3.74471 98.66034 10860 ft 297 kts 306°
2026-04-24 16:22 3.77139 98.62320 11253 ft 356 kts 306°
2026-04-24 16:22 3.78629 98.60247 11524 ft 377 kts 306°
2026-04-24 16:23 3.80183 98.58085 12131 ft 386 kts 306°
2026-04-24 16:23 3.81748 98.55910 12900 ft 390 kts 306°
2026-04-24 16:23 3.83345 98.53689 13665 ft 394 kts 306°
2026-04-24 16:24 3.86598 98.49168 14965 ft 404 kts 306°
2026-04-24 16:24 3.88231 98.46897 15626 ft 408 kts 306°
2026-04-24 16:24 3.89928 98.44539 16271 ft 414 kts 306°
2026-04-24 16:24 3.91601 98.42213 16873 ft 419 kts 306°
2026-04-24 16:25 3.93324 98.39818 17484 ft 423 kts 306°
2026-04-24 16:25 3.95039 98.37433 18087 ft 427 kts 306°
2026-04-24 16:25 3.96799 98.34986 18614 ft 431 kts 306°
2026-04-24 16:26 4.00316 98.30095 19690 ft 436 kts 306°
2026-04-24 16:26 4.02123 98.27583 20220 ft 439 kts 306°
2026-04-24 16:26 4.05685 98.22628 21194 ft 444 kts 306°
2026-04-24 16:27 4.07492 98.20115 21681 ft 447 kts 306°
2026-04-24 16:27 4.09301 98.17597 22149 ft 450 kts 306°
2026-04-24 16:27 4.11143 98.15035 22603 ft 453 kts 306°
2026-04-24 16:27 4.12979 98.12481 23053 ft 455 kts 306°
2026-04-24 16:28 4.14832 98.09901 23464 ft 458 kts 305°
2026-04-24 16:28 4.16697 98.07305 23814 ft 461 kts 306°
2026-04-24 16:28 4.20471 98.02052 24531 ft 465 kts 306°
2026-04-24 16:29 4.22368 97.99412 24886 ft 467 kts 306°
2026-04-24 16:29 4.24253 97.96788 25239 ft 468 kts 306°
2026-04-24 16:29 4.28091 97.91444 25909 ft 472 kts 306°
2026-04-24 16:30 4.31933 97.86094 26532 ft 476 kts 305°
2026-04-24 16:30 4.33871 97.83397 26823 ft 478 kts 305°
2026-04-24 16:30 4.35820 97.80683 27108 ft 480 kts 305°
2026-04-24 16:31 4.37769 97.77967 27384 ft 482 kts 305°
2026-04-24 16:31 4.39761 97.75189 27653 ft 484 kts 306°
2026-04-24 16:31 4.41683 97.72508 27898 ft 486 kts 305°
2026-04-24 16:31 4.43646 97.69772 28144 ft 487 kts 305°
2026-04-24 16:32 4.45647 97.66982 28393 ft 489 kts 305°
2026-04-24 16:32 4.47637 97.64210 28622 ft 490 kts 305°
2026-04-24 16:32 4.49637 97.61424 28846 ft 492 kts 305°
2026-04-24 16:32 4.51610 97.58676 29045 ft 494 kts 305°
2026-04-24 16:33 4.53637 97.55849 29242 ft 495 kts 305°
2026-04-24 16:33 4.55641 97.53053 29538 ft 495 kts 305°
2026-04-24 16:33 4.57667 97.50228 29899 ft 493 kts 304°
2026-04-24 16:33 4.59636 97.47481 30234 ft 492 kts 306°
2026-04-24 16:34 4.61652 97.44667 30527 ft 492 kts 306°
2026-04-24 16:34 4.63611 97.41933 30799 ft 492 kts 305°
2026-04-24 16:34 4.65646 97.39094 31136 ft 491 kts 305°
2026-04-24 16:34 4.67651 97.36297 31510 ft 489 kts 306°
2026-04-24 16:35 4.69597 97.33581 31869 ft 488 kts 304°
2026-04-24 16:35 4.71560 97.30839 32222 ft 488 kts 306°
2026-04-24 16:35 4.73553 97.28054 32596 ft 488 kts 305°
2026-04-24 16:35 4.75509 97.25323 33014 ft 487 kts 305°
2026-04-24 16:36 4.77499 97.22545 33453 ft 485 kts 305°
2026-04-24 16:36 4.79466 97.19800 33867 ft 485 kts 305°
2026-04-24 16:36 4.83411 97.14292 33938 ft 487 kts 305°
2026-04-24 16:37 4.87343 97.08801 33933 ft 484 kts 305°
2026-04-24 16:37 4.91254 97.03336 33935 ft 482 kts 305°
2026-04-24 16:38 4.95171 96.97861 33948 ft 482 kts 305°
2026-04-24 16:38 4.99089 96.92383 33933 ft 482 kts 305°
2026-04-24 16:39 5.02994 96.86923 33933 ft 483 kts 305°
2026-04-24 16:39 5.06899 96.81461 33928 ft 484 kts 305°
2026-04-24 16:40 5.10846 96.75940 33922 ft 485 kts 306°
2026-04-24 16:40 5.14747 96.70481 33924 ft 485 kts 306°
2026-04-24 16:41 5.18679 96.64978 33921 ft 486 kts 306°
2026-04-24 16:41 5.22625 96.59454 33914 ft 486 kts 306°
2026-04-24 16:42 5.26517 96.54004 33886 ft 463 kts 306°
2026-04-24 16:42 5.28345 96.51444 33876 ft 446 kts 306°
2026-04-24 16:42 5.30148 96.48919 33193 ft 445 kts 306°
2026-04-24 16:43 5.31942 96.46405 32481 ft 447 kts 306°
2026-04-24 16:43 5.33761 96.43856 31756 ft 448 kts 306°
2026-04-24 16:43 5.35567 96.41325 31067 ft 449 kts 306°
2026-04-24 16:43 5.37383 96.38780 30385 ft 449 kts 306°
2026-04-24 16:44 5.39205 96.36227 29669 ft 449 kts 306°
2026-04-24 16:44 5.41037 96.33660 28885 ft 449 kts 306°
2026-04-24 16:44 5.42844 96.31126 28126 ft 447 kts 306°
2026-04-24 16:44 5.44662 96.28577 27380 ft 446 kts 306°
2026-04-24 16:45 5.46445 96.26077 26674 ft 444 kts 306°
2026-04-24 16:45 5.48237 96.23564 25972 ft 442 kts 307°
2026-04-24 16:45 5.50029 96.21050 25287 ft 440 kts 307°
2026-04-24 16:45 5.51806 96.18557 24615 ft 438 kts 307°
2026-04-24 16:46 5.53586 96.16060 23955 ft 436 kts 307°
2026-04-24 16:46 5.55336 96.13604 23281 ft 434 kts 307°
2026-04-24 16:46 5.57068 96.11174 22533 ft 432 kts 307°
2026-04-24 16:46 5.58801 96.08742 21795 ft 429 kts 307°
2026-04-24 16:47 5.60553 96.06283 21062 ft 426 kts 307°
2026-04-24 16:47 5.62290 96.03845 20347 ft 424 kts 307°
2026-04-24 16:47 5.63988 96.01461 19658 ft 421 kts 307°
2026-04-24 16:47 5.65678 95.99089 18984 ft 418 kts 306°
2026-04-24 16:48 5.67378 95.96702 18307 ft 416 kts 306°
2026-04-24 16:48 5.69039 95.94369 17586 ft 413 kts 306°
2026-04-24 16:48 5.70713 95.92017 16837 ft 410 kts 306°
2026-04-24 16:48 5.72343 95.89728 16117 ft 407 kts 306°
2026-04-24 16:49 5.74007 95.87391 15400 ft 405 kts 306°
2026-04-24 16:49 5.75650 95.85082 14704 ft 402 kts 306°
2026-04-24 16:49 5.77250 95.82835 14031 ft 399 kts 306°
2026-04-24 16:49 5.78850 95.80586 13322 ft 397 kts 306°
2026-04-24 16:50 5.79922 95.79079 12819 ft 395 kts 306°
2026-04-24 16:50 5.82044 95.76096 11846 ft 391 kts 306°
2026-04-24 16:50 5.83559 95.73967 11252 ft 385 kts 306°
2026-04-24 16:50 5.85108 95.71787 10771 ft 377 kts 306°
2026-04-24 16:51 5.86578 95.69720 10609 ft 360 kts 306°
2026-04-24 16:51 5.88015 95.67698 10470 ft 344 kts 306°
2026-04-24 16:51 5.89380 95.65778 10338 ft 330 kts 306°
2026-04-24 16:51 5.90676 95.63955 10258 ft 316 kts 306°
2026-04-24 16:52 5.91927 95.62192 10204 ft 302 kts 305°
2026-04-24 16:52 5.92768 95.60300 10118 ft 290 kts 280°
2026-04-24 16:52 5.92724 95.58343 9924 ft 283 kts 255°
2026-04-24 16:52 5.91842 95.56634 9616 ft 272 kts 227°
2026-04-24 16:53 5.90385 95.55461 9244 ft 262 kts 212°
2026-04-24 16:53 5.88867 95.54496 8747 ft 260 kts 211°
2026-04-24 16:53 5.87333 95.53545 8260 ft 258 kts 211°
2026-04-24 16:53 5.85811 95.52610 7780 ft 256 kts 210°
2026-04-24 16:54 5.84386 95.51548 7253 ft 249 kts 229°
2026-04-24 16:54 5.83663 95.50039 6785 ft 238 kts 261°
2026-04-24 16:54 5.83816 95.48431 6335 ft 229 kts 290°
2026-04-24 16:54 5.84414 95.46985 5869 ft 222 kts 293°
2026-04-24 16:55 5.84893 95.45523 5406 ft 216 kts 287°
2026-04-24 16:55 5.85296 95.44104 4932 ft 209 kts 286°
2026-04-24 16:55 5.85669 95.42710 4446 ft 204 kts 284°
2026-04-24 16:55 5.86000 95.41360 3979 ft 196 kts 284°
2026-04-24 16:56 5.86308 95.40069 3532 ft 183 kts 284°
2026-04-24 16:56 5.86589 95.38867 3173 ft 167 kts 284°
2026-04-24 16:56 5.86881 95.37731 3087 ft 184 kts 293°
2026-04-24 16:56 5.87323 95.36920 2960 ft 204 kts 302°
2026-04-24 16:57 5.88036 95.35704 2871 ft 204 kts 301°
2026-04-24 16:57 5.88877 95.34245 2975 ft 204 kts 301°
2026-04-24 16:57 5.89354 95.33412 2994 ft 205 kts 301°
2026-04-24 16:57 5.90301 95.31760 2983 ft 206 kts 301°
2026-04-24 16:58 5.90785 95.30914 3000 ft 205 kts 301°
2026-04-24 16:58 5.91487 95.29689 3002 ft 205 kts 301°
2026-04-24 16:58 5.92208 95.28430 3011 ft 205 kts 301°
2026-04-24 16:58 5.92919 95.27188 3012 ft 206 kts 301°
2026-04-24 16:59 5.93627 95.25951 3001 ft 204 kts 300°
2026-04-24 16:59 5.94107 95.24627 2853 ft 202 kts 276°
2026-04-24 16:59 5.92778 95.22407 2506 ft 194 kts 199°
2026-04-24 17:00 5.91492 95.22371 2334 ft 183 kts 162°
2026-04-24 17:00 5.90023 95.24164 2012 ft 174 kts 100°
2026-04-24 17:00 5.89781 95.25360 1837 ft 175 kts 103°
2026-04-24 17:01 5.89109 95.27608 1697 ft 162 kts 106°
2026-04-24 17:01 5.88772 95.28637 1664 ft 157 kts 111°
2026-04-24 17:02 5.87926 95.30652 1428 ft 153 kts 103°
2026-04-24 17:02 5.87795 95.31714 1029 ft 151 kts 99°
2026-04-24 17:02 5.87657 95.32709 650 ft 135 kts 99°
2026-04-24 17:02 5.87535 95.33553 421 ft 117 kts 97°
2026-04-24 17:03 5.87399 95.34154 400 ft 12 kts 193°
2026-04-24 17:03 5.87314 95.34139 400 ft 13 kts 189°
2026-04-24 17:03 5.87244 95.34139 396 ft 5 kts 116°
2026-04-24 17:04 5.87239 95.34178 395 ft 6 kts 94°
2026-04-24 17:04 5.87200 95.34217 390 ft 2 kts 189°
2026-04-24 17:04 5.87199 95.34217 390 ft 0 kts 189°